Mankato, MN

3:52 AM CDT on April 26, 2017 (GMT -0500)
Mankato Regional

Weather History for KMKT - December, 2013

Change the Weather History Date:

Friday, December 20, 2013

  Actual Average Record
Temperature  
Mean Temperature 16 °F -  
Max Temperature 17 °F 22 °F 39 °F (2015)
Min Temperature 14 °F 9 °F -16 °F (1996)
Degree Days  
Heating Degree Days 50    
Moisture  
Dew Point 12 °F    
Average Humidity 83    
Maximum Humidity 86    
Minimum Humidity 79    
Precipitation  
Precipitation 0.00 in - - ()
Sea Level Pressure  
Sea Level Pressure 29.92 in    
Wind  
Wind Speed 10 mph (North)    
Max Wind Speed 15 mph    
Max Gust Speed 18 mph    
Visibility 10 miles    
Events      
Averages and records for this station are not official NWS values.
T = Trace of Precipitation, MM = Missing Value Source: NWS Daily Summary

Daily Weather History Graph

Daily Weather History Graph

Search for Another Location

Airport or City:

Trip Planner

Search our weather history database for the weather conditions in past years. The results will help you decide how hot, cold, wet, or windy it might be!

Date:

Astronomy

Dec. 20, 2013 Rise Set
Actual Time 7:47 AM CST 4:39 PM CST
Civil Twilight 7:14 AM CST 5:12 PM CST
Nautical Twilight 6:37 AM CST 5:49 PM CST
Astronomical Twilight 6:02 AM CST 6:24 PM CST
Moon 8:07 PM CST (12/20) 9:36 AM CST (12/20)
Length of Visible Light 9h 58m
Length of Day
8h 51m
Waning Gibbous, 90% of the Moon is Illuminated
Dec 20
Waning Gibbous
Dec 25
Last Quarter
Jan 1
New
Jan 7
First Quarter
Jan 15
Full

Hourly Weather History & Observations

Time (CST) Temp. Windchill Dew Point Humidity Pressure Visibility Wind Dir Wind Speed Gust Speed Precip Events Conditions
12:15 AM 17.6 °F 3.2 °F 12.2 °F 79% 29.96 in 10.0 mi NNE 15.0 mph 18.4 mph N/A   Overcast
12:35 AM 17.6 °F 3.2 °F 12.2 °F 79% 29.97 in 10.0 mi NNE 15.0 mph - N/A   Overcast
12:55 AM 17.6 °F 4.3 °F 12.2 °F 79% 29.97 in 10.0 mi NNE 12.7 mph - N/A   Overcast
1:15 AM 17.6 °F 3.7 °F 12.2 °F 79% 29.96 in 9.0 mi NE 13.8 mph - N/A   Overcast
1:35 AM 17.6 °F 4.3 °F 12.2 °F 79% 29.95 in 5.0 mi NE 12.7 mph - N/A   Overcast
1:55 AM 17.6 °F 5.0 °F 12.2 °F 79% 29.94 in 7.0 mi NE 11.5 mph - N/A   Overcast
2:15 AM 17.6 °F 6.4 °F 14.0 °F 86% 29.95 in 10.0 mi NNE 9.2 mph - N/A   Overcast
2:35 AM 17.6 °F 6.4 °F 14.0 °F 86% 29.95 in 10.0 mi NNE 9.2 mph - N/A   Overcast
2:55 AM 17.6 °F 6.4 °F 14.0 °F 86% 29.95 in 10.0 mi NNE 9.2 mph - N/A   Overcast
3:15 AM 17.6 °F 5.7 °F 14.0 °F 86% 29.95 in 10.0 mi NNE 10.4 mph - N/A   Overcast
3:35 AM 17.6 °F 5.7 °F 12.2 °F 79% 29.95 in 10.0 mi NNE 10.4 mph - N/A   Overcast
3:55 AM 17.6 °F 5.0 °F 12.2 °F 79% 29.95 in 10.0 mi NNE 11.5 mph - N/A   Overcast
4:15 AM 15.8 °F 2.1 °F 12.2 °F 86% 29.95 in 10.0 mi NNE 12.7 mph - N/A   Overcast
4:35 AM 15.8 °F 2.7 °F 12.2 °F 86% 29.95 in 10.0 mi NNE 11.5 mph - N/A   Overcast
4:55 AM 15.8 °F 2.7 °F 12.2 °F 86% 29.95 in 10.0 mi NE 11.5 mph - N/A   Overcast
5:15 AM 17.6 °F 6.4 °F 12.2 °F 79% 29.95 in 10.0 mi NNE 9.2 mph - N/A   Overcast
5:35 AM 17.6 °F 5.7 °F 12.2 °F 79% 29.95 in 10.0 mi NNE 10.4 mph - N/A   Overcast
5:55 AM 17.6 °F 5.7 °F 12.2 °F 79% 29.95 in 10.0 mi NNE 10.4 mph - N/A   Overcast
6:15 AM 17.6 °F 5.0 °F 12.2 °F 79% 29.95 in 10.0 mi NNE 11.5 mph - N/A   Overcast
6:35 AM 17.6 °F 5.7 °F 12.2 °F 79% 29.95 in 10.0 mi North 10.4 mph - N/A   Overcast
6:55 AM 15.8 °F 2.7 °F 12.2 °F 86% 29.96 in 10.0 mi North 11.5 mph - N/A   Overcast
7:15 AM 15.8 °F 3.4 °F 12.2 °F 86% 29.96 in 10.0 mi NNE 10.4 mph - N/A   Overcast
7:35 AM 15.8 °F 3.4 °F 12.2 °F 86% 29.97 in 10.0 mi North 10.4 mph - N/A   Overcast
7:55 AM 15.8 °F 6.1 °F 12.2 °F 86% 29.97 in 10.0 mi NNE 6.9 mph - N/A   Overcast
8:15 AM 15.8 °F 5.1 °F 12.2 °F 86% 29.96 in 10.0 mi NNE 8.1 mph - N/A   Overcast
8:35 AM 15.8 °F 4.2 °F 12.2 °F 86% 29.97 in 10.0 mi NNE 9.2 mph - N/A   Overcast
8:55 AM 15.8 °F 4.2 °F 12.2 °F 86% 29.96 in 10.0 mi North 9.2 mph - N/A   Overcast
9:15 AM 15.8 °F 4.2 °F 12.2 °F 86% 29.96 in 10.0 mi North 9.2 mph - N/A   Overcast
9:35 AM 15.8 °F 4.2 °F 12.2 °F 86% 29.97 in 10.0 mi North 9.2 mph - N/A   Overcast
9:55 AM 15.8 °F 4.2 °F 12.2 °F 86% 29.96 in 10.0 mi North 9.2 mph - N/A   Overcast
10:15 AM 15.8 °F 6.1 °F 12.2 °F 86% 29.95 in 10.0 mi NNE 6.9 mph - N/A   Overcast
10:35 AM 15.8 °F 5.1 °F 12.2 °F 86% 29.95 in 10.0 mi NNE 8.1 mph - N/A   Overcast
10:55 AM 15.8 °F 5.1 °F 12.2 °F 86% 29.95 in 10.0 mi North 8.1 mph - N/A   Overcast
11:15 AM 15.8 °F 5.1 °F 12.2 °F 86% 29.95 in 10.0 mi North 8.1 mph - N/A   Overcast
11:35 AM 15.8 °F 5.1 °F 12.2 °F 86% 29.94 in 10.0 mi North 8.1 mph - N/A   Overcast
11:55 AM 15.8 °F 6.1 °F 12.2 °F 86% 29.94 in 10.0 mi NNE 6.9 mph - N/A   Overcast
12:15 PM 17.6 °F 7.3 °F 12.2 °F 79% 29.93 in 10.0 mi North 8.1 mph - N/A   Overcast
12:35 PM 17.6 °F 8.2 °F 12.2 °F 79% 29.92 in 10.0 mi NNE 6.9 mph - N/A   Overcast
12:55 PM 17.6 °F 8.2 °F 12.2 °F 79% 29.91 in 10.0 mi North 6.9 mph - N/A   Overcast
1:15 PM 17.6 °F 8.2 °F 12.2 °F 79% 29.90 in 10.0 mi North 6.9 mph - N/A   Overcast
1:35 PM 17.6 °F 7.3 °F 12.2 °F 79% 29.90 in 10.0 mi North 8.1 mph - N/A   Overcast
1:55 PM 17.6 °F 9.3 °F 12.2 °F 79% 29.89 in 10.0 mi NNE 5.8 mph - N/A   Overcast
2:15 PM 17.6 °F 9.3 °F 12.2 °F 79% 29.89 in 10.0 mi North 5.8 mph - N/A   Overcast
2:35 PM 17.6 °F 8.2 °F 12.2 °F 79% 29.89 in 10.0 mi North 6.9 mph - N/A   Overcast
2:55 PM 17.6 °F 8.2 °F 12.2 °F 79% 29.89 in 10.0 mi North 6.9 mph - N/A   Overcast
3:15 PM 17.6 °F 7.3 °F 12.2 °F 79% 29.89 in 10.0 mi NNW 8.1 mph - N/A   Overcast
3:35 PM 17.6 °F 6.4 °F 12.2 °F 79% 29.88 in 10.0 mi NNW 9.2 mph - N/A   Overcast
3:55 PM 17.6 °F 7.3 °F 12.2 °F 79% 29.89 in 10.0 mi NNW 8.1 mph - N/A   Overcast
4:15 PM 15.8 °F 4.2 °F 12.2 °F 86% 29.90 in 10.0 mi NNW 9.2 mph - N/A   Overcast
4:35 PM 15.8 °F 5.1 °F 12.2 °F 86% 29.89 in 10.0 mi NNW 8.1 mph - N/A   Overcast
4:55 PM 15.8 °F 6.1 °F 12.2 °F 86% 29.88 in 10.0 mi North 6.9 mph - N/A   Overcast
5:15 PM 15.8 °F 6.1 °F 12.2 °F 86% 29.88 in 10.0 mi NNW 6.9 mph - N/A   Overcast
5:35 PM 15.8 °F 8.6 °F 12.2 °F 86% 29.89 in 10.0 mi NW 4.6 mph - N/A   Overcast
5:55 PM 15.8 °F 10.2 °F 12.2 °F 86% 29.89 in 10.0 mi NW 3.5 mph - N/A   Overcast
6:15 PM 15.8 °F 10.2 °F 12.2 °F 86% 29.89 in 10.0 mi WNW 3.5 mph - N/A   Overcast
6:35 PM 15.8 °F 7.2 °F 12.2 °F 86% 29.90 in 10.0 mi West 5.8 mph - N/A   Overcast
6:55 PM 15.8 °F 8.6 °F 12.2 °F 86% 29.90 in 10.0 mi WNW 4.6 mph - N/A   Overcast
7:15 PM 15.8 °F 8.6 °F 12.2 °F 86% 29.88 in 10.0 mi NW 4.6 mph - N/A   Overcast
7:35 PM 15.8 °F 7.2 °F 12.2 °F 86% 29.89 in 10.0 mi WNW 5.8 mph - N/A   Overcast
7:55 PM 15.8 °F 6.1 °F 12.2 °F 86% 29.89 in 10.0 mi NW 6.9 mph - N/A   Overcast
8:15 PM 15.8 °F 6.1 °F 12.2 °F 86% 29.90 in 10.0 mi WNW 6.9 mph - N/A   Overcast
8:35 PM 15.8 °F 8.6 °F 10.4 °F 79% 29.88 in 10.0 mi WNW 4.6 mph - N/A   Overcast
8:55 PM 15.8 °F 8.6 °F 12.2 °F 86% 29.86 in 10.0 mi WNW 4.6 mph - N/A   Overcast
9:15 PM 15.8 °F 5.1 °F 12.2 °F 86% 29.85 in 10.0 mi NNW 8.1 mph - N/A   Overcast
9:35 PM 15.8 °F 4.2 °F 12.2 °F 86% 29.85 in 10.0 mi NW 9.2 mph - N/A   Overcast
9:55 PM 15.8 °F 5.1 °F 10.4 °F 79% 29.85 in 10.0 mi NW 8.1 mph - N/A   Overcast
10:15 PM 14.0 °F 5.1 °F 10.4 °F 86% 29.85 in 10.0 mi NW 5.8 mph - N/A   Overcast
10:35 PM 14.0 °F 3.9 °F 10.4 °F 86% 29.85 in 10.0 mi WNW 6.9 mph - N/A   Overcast
10:55 PM 14.0 °F 3.9 °F 10.4 °F 86% 29.86 in 10.0 mi WNW 6.9 mph - N/A   Overcast
11:15 PM 14.0 °F 6.5 °F 8.6 °F 79% 29.86 in 10.0 mi NW 4.6 mph - N/A   Overcast
11:35 PM 14.0 °F 8.2 °F 10.4 °F 86% 29.86 in 10.0 mi WNW 3.5 mph - N/A   Overcast
11:55 PM 14.0 °F 8.2 °F 10.4 °F 86% 29.86 in 10.0 mi NW 3.5 mph - N/A   Overcast